Centralia, IL

11:38 AM CST on January 23, 2017 (GMT -0600)
Centralia Municipal

Weather History for KENL - January, 2012

Change the Weather History Date:

Monday, January 16, 2012

  Actual Average (KSLO) Record (KSLO)
Temperature  
Mean Temperature 48 °F -  
Max Temperature 58 °F 39 °F 69 °F (1990)
Min Temperature 39 °F 19 °F -12 °F (1977)
Degree Days  
Heating Degree Days 16    
Moisture  
Dew Point 41 °F    
Average Humidity 69    
Maximum Humidity 82    
Minimum Humidity 62    
Precipitation  
Precipitation 0.00 in - - ()
Sea Level Pressure  
Sea Level Pressure 29.92 in    
Wind  
Wind Speed 17 mph (South)    
Max Wind Speed 26 mph    
Max Gust Speed 40 mph    
Visibility 10 miles    
Events      
Averages and records for this station are not official NWS values.
T = Trace of Precipitation, MM = Missing Value Source: NWS Daily Summary

Daily Weather History Graph

Daily Weather History Graph

Search for Another Location

Airport or City:

Trip Planner

Search our weather history database for the weather conditions in past years. The results will help you decide how hot, cold, wet, or windy it might be!

Date:

Astronomy

Jan. 16, 2012 Rise Set
Actual Time 7:12 AM CST 5:00 PM CST
Civil Twilight 6:43 AM CST 5:29 PM CST
Nautical Twilight 6:10 AM CST 6:01 PM CST
Astronomical Twilight 5:38 AM CST 6:33 PM CST
Moon 12:22 AM CST (1/16) 11:12 AM CST (1/16)
Length of Visible Light 10h 45m
Length of Day
9h 47m
Last Quarter, 46% of the Moon is Illuminated
Jan 16
Last Quarter
Jan 23
New
Jan 30
First Quarter
Feb 7
Full
Feb 14
Last Quarter

Hourly Weather History & Observations

Time (CST) Temp. Windchill Dew Point Humidity Pressure Visibility Wind Dir Wind Speed Gust Speed Precip Events Conditions
12:15 AM 39.2 °F 32.0 °F 28.8 °F 66% 30.07 in 10.0 mi SSE 11.5 mph - N/A   Clear
12:35 AM 40.3 °F 33.9 °F 29.1 °F 64% 30.07 in 10.0 mi South 10.4 mph 17.3 mph N/A   Clear
12:55 AM 41.2 °F 34.5 °F 29.3 °F 63% 30.07 in 10.0 mi South 11.5 mph 17.3 mph N/A   Clear
1:15 AM 41.0 °F 33.5 °F 30.0 °F 65% 30.07 in 10.0 mi South 13.8 mph 19.6 mph N/A   Clear
1:35 AM 41.9 °F 34.3 °F 30.4 °F 64% 30.06 in 10.0 mi South 15.0 mph 20.7 mph N/A   Clear
1:55 AM 42.3 °F 34.1 °F 30.9 °F 64% 30.05 in 10.0 mi South 17.3 mph - N/A   Clear
2:15 AM 42.3 °F 34.4 °F 31.1 °F 65% 30.05 in 10.0 mi South 16.1 mph - N/A   Clear
2:35 AM 43.0 °F 35.1 °F 31.6 °F 64% 30.03 in 10.0 mi South 17.3 mph 25.3 mph N/A   Clear
2:55 AM 43.2 °F 34.7 °F 31.8 °F 64% 30.02 in 10.0 mi South 19.6 mph 25.3 mph N/A   Clear
3:15 AM 43.9 °F 36.2 °F 32.0 °F 63% 30.01 in 10.0 mi South 17.3 mph - N/A   Clear
3:35 AM 43.7 °F 36.0 °F 32.0 °F 63% 30.01 in 10.0 mi South 17.3 mph - N/A   Clear
3:55 AM 44.1 °F 36.2 °F 32.2 °F 63% 30.00 in 10.0 mi South 18.4 mph 23.0 mph N/A   Clear
4:15 AM 44.2 °F 36.7 °F 32.5 °F 63% 30.00 in 10.0 mi South 17.3 mph 21.9 mph N/A   Clear
4:35 AM 43.9 °F 36.2 °F 32.9 °F 65% 29.99 in 10.0 mi South 17.3 mph - N/A   Clear
4:55 AM 46.0 °F 39.3 °F 33.8 °F 62% 29.98 in 10.0 mi South 16.1 mph 23.0 mph N/A   Clear
5:15 AM 47.1 °F - 34.7 °F 62% 29.98 in 10.0 mi South 16.1 mph 25.3 mph N/A   Clear
5:35 AM 47.3 °F - 35.6 °F 64% 29.98 in 10.0 mi South 15.0 mph 21.9 mph N/A   Clear
5:55 AM 48.2 °F - 36.5 °F 64% 29.98 in 10.0 mi South 15.0 mph 24.2 mph N/A   Clear
6:15 AM 48.0 °F - 36.9 °F 65% 29.98 in 10.0 mi South 16.1 mph 21.9 mph N/A   Scattered Clouds
6:35 AM 48.0 °F - 37.4 °F 67% 29.97 in 10.0 mi South 16.1 mph - N/A   Clear
6:55 AM 48.2 °F - 37.6 °F 67% 29.96 in 10.0 mi South 16.1 mph 24.2 mph N/A   Clear
7:15 AM 48.4 °F - 38.1 °F 68% 29.95 in 10.0 mi South 16.1 mph 23.0 mph N/A   Clear
7:35 AM 49.1 °F - 38.7 °F 67% 29.95 in 10.0 mi South 17.3 mph 20.7 mph N/A   Clear
7:55 AM 50.0 °F - 39.6 °F 67% 29.95 in 10.0 mi South 18.4 mph 26.5 mph N/A   Clear
8:15 AM 50.9 °F - 40.5 °F 67% 29.94 in 10.0 mi South 18.4 mph 25.3 mph N/A   Clear
8:35 AM 52.7 °F - 41.7 °F 66% 29.94 in 10.0 mi South 18.4 mph 31.1 mph N/A   Clear
8:55 AM 53.6 °F - 42.8 °F 67% 29.94 in 10.0 mi South 20.7 mph 28.8 mph N/A   Clear
9:15 AM 53.4 °F - 43.2 °F 68% 29.94 in 10.0 mi South 20.7 mph 29.9 mph N/A   Clear
9:35 AM 53.6 °F - 43.7 °F 69% 29.94 in 10.0 mi South 21.9 mph 31.1 mph N/A   Clear
9:55 AM 53.6 °F - 43.9 °F 70% 29.92 in 10.0 mi South 24.2 mph 29.9 mph N/A   Clear
10:15 AM 54.5 °F - 44.8 °F 70% 29.91 in 10.0 mi South 24.2 mph 31.1 mph N/A   Clear
10:35 AM 55.4 °F - 45.5 °F 69% 29.91 in 10.0 mi South 23.0 mph 31.1 mph N/A   Scattered Clouds
10:55 AM 55.8 °F - 46.4 °F 71% 29.90 in 10.0 mi South 23.0 mph 34.5 mph N/A   Scattered Clouds
11:15 AM 55.6 °F - 46.2 °F 71% 29.90 in 10.0 mi South 24.2 mph 32.2 mph N/A   Mostly Cloudy
11:35 AM 55.8 °F - 46.8 °F 72% 29.88 in 10.0 mi South 24.2 mph 32.2 mph N/A   Mostly Cloudy
11:55 AM 55.6 °F - 46.6 °F 72% 29.88 in 10.0 mi SSW 26.5 mph 40.3 mph N/A   Mostly Cloudy
12:15 PM 55.6 °F - 46.8 °F 72% 29.87 in 10.0 mi South 19.6 mph 34.5 mph N/A   Mostly Cloudy
12:35 PM 55.4 °F - 47.1 °F 74% 29.85 in 10.0 mi SSW 19.6 mph 35.7 mph N/A   Mostly Cloudy
12:55 PM 55.8 °F - 47.3 °F 73% 29.83 in 10.0 mi SSW 25.3 mph 32.2 mph N/A   Mostly Cloudy
1:15 PM 55.9 °F - 47.7 °F 74% 29.82 in 10.0 mi South 20.7 mph 28.8 mph N/A   Mostly Cloudy
1:35 PM 56.3 °F - 48.2 °F 74% 29.81 in 10.0 mi SSW 19.6 mph 28.8 mph N/A   Mostly Cloudy
1:55 PM 57.0 °F - 48.6 °F 73% 29.80 in 10.0 mi SSW 18.4 mph 28.8 mph N/A   Mostly Cloudy
2:15 PM 57.4 °F - 49.1 °F 74% 29.81 in 10.0 mi SSW 20.7 mph 29.9 mph N/A   Mostly Cloudy
2:35 PM 57.6 °F - 49.3 °F 74% 29.81 in 10.0 mi SSW 20.7 mph 26.5 mph N/A   Overcast
2:55 PM 58.1 °F - 49.5 °F 73% 29.80 in 10.0 mi SSW 24.2 mph 29.9 mph N/A   Mostly Cloudy
3:15 PM 58.5 °F - 49.8 °F 73% 29.79 in 10.0 mi South 18.4 mph 31.1 mph N/A   Scattered Clouds
3:35 PM 58.3 °F - 50.0 °F 74% 29.79 in 10.0 mi South 20.7 mph 26.5 mph N/A   Scattered Clouds
3:55 PM 58.5 °F - 50.2 °F 74% 29.80 in 10.0 mi SSW 21.9 mph 31.1 mph N/A   Scattered Clouds
4:15 PM 58.3 °F - 50.4 °F 75% 29.81 in 10.0 mi SSW 19.6 mph 26.5 mph N/A   Clear
4:35 PM 58.3 °F - 50.5 °F 75% 29.81 in 10.0 mi SSW 20.7 mph 28.8 mph N/A   Clear
4:55 PM 57.6 °F - 50.7 °F 78% 29.81 in 10.0 mi South 18.4 mph 26.5 mph N/A   Clear
5:15 PM 57.2 °F - 51.8 °F 82% 29.81 in 10.0 mi South 17.3 mph 26.5 mph N/A   Clear
5:35 PM 57.9 °F - 51.3 °F 78% 29.80 in 10.0 mi South 20.7 mph 32.2 mph N/A   Clear
5:55 PM 58.1 °F - 51.8 °F 80% 29.80 in 10.0 mi South 21.9 mph 26.5 mph N/A   Clear
6:15 PM 58.3 °F - 52.2 °F 80% 29.81 in 10.0 mi South 20.7 mph 28.8 mph N/A   Clear
6:35 PM 58.6 °F - 52.5 °F 80% 29.80 in 10.0 mi South 24.2 mph 29.9 mph N/A   Clear
6:55 PM 58.8 °F - 52.7 °F 80% 29.80 in 10.0 mi South 20.7 mph 31.1 mph N/A   Clear
7:15 PM 59.0 °F - 52.9 °F 80% 29.80 in 10.0 mi South 17.3 mph 25.3 mph N/A   Clear
7:35 PM 59.0 °F - 53.2 °F 81% 29.80 in 10.0 mi South 18.4 mph 21.9 mph N/A   Clear
7:55 PM 59.9 °F - 53.8 °F 80% 29.80 in 10.0 mi South 18.4 mph 25.3 mph N/A   Clear
8:15 PM 60.1 °F - 54.1 °F 81% 29.79 in 10.0 mi South 23.0 mph 27.6 mph N/A   Scattered Clouds
8:35 PM 60.8 °F - 55.4 °F 82% 29.78 in 10.0 mi South 24.2 mph 29.9 mph N/A   Clear
8:55 PM 61.2 °F - 54.9 °F 80% 29.78 in 10.0 mi South 25.3 mph 31.1 mph N/A   Clear
9:15 PM 61.5 °F - 55.0 °F 79% 29.78 in 10.0 mi South 24.2 mph 31.1 mph N/A   Clear
9:35 PM 61.7 °F - 55.2 °F 79% 29.79 in 10.0 mi South 24.2 mph 32.2 mph N/A   Clear
9:55 PM 62.1 °F - 55.4 °F 79% 29.79 in 10.0 mi South 23.0 mph 31.1 mph N/A   Clear
10:15 PM 62.1 °F - 55.4 °F 79% 29.79 in 10.0 mi SSW 21.9 mph 31.1 mph N/A   Clear
10:35 PM 62.6 °F - 55.6 °F 78% 29.79 in 10.0 mi South 21.9 mph 32.2 mph N/A   Scattered Clouds
10:55 PM 62.1 °F - 55.8 °F 80% 29.78 in 10.0 mi South 21.9 mph 28.8 mph N/A   Scattered Clouds
11:15 PM 61.7 °F - 55.6 °F 80% 29.78 in 10.0 mi South 18.4 mph 27.6 mph N/A   Scattered Clouds
11:35 PM 61.7 °F - 55.8 °F 81% 29.77 in 10.0 mi South 18.4 mph - N/A   Mostly Cloudy
11:55 PM 61.7 °F - 55.9 °F 81% 29.75 in 10.0 mi South 19.6 mph 25.3 mph N/A   Mostly Cloudy